VTK503 UHPP-UNKL

Flight info

Callsign VTK503
Flight time N/A
Altitude 36000
Route BAKEN4M BAKEN A812 OTLIM G119 BANOT G370 UTS/K0845F380 G370 ABGUR W289 GISUN W39 ERBOG W105 LANAP W339 BARIK W261 OKRIM OKRIM2S
Aircraft A319/M-SDE3FGHIRWY/LB1

Departure

Time 2026-05-07 23:19
Airport Yelizovo Airport (UHPP)

Arrival

Time N/A
Airport Krasnoyarsk International Airport (UNKL)
Time Latitude Longitude Altitude Speed Heading
2026-05-07 23:08 53.16845 158.42977 137 ft 0 kts 240°
2026-05-07 23:14 53.16842 158.42970 137 ft 3 kts 240°
2026-05-07 23:15 53.16842 158.42895 137 ft 10 kts 298°
2026-05-07 23:15 53.16922 158.42800 137 ft 17 kts 330°
2026-05-07 23:15 53.17028 158.42804 137 ft 16 kts 45°
2026-05-07 23:15 53.17090 158.42978 137 ft 19 kts 60°
2026-05-07 23:16 53.17157 158.43174 137 ft 21 kts 60°
2026-05-07 23:16 53.17233 158.43392 137 ft 23 kts 60°
2026-05-07 23:16 53.17316 158.43630 137 ft 25 kts 59°
2026-05-07 23:16 53.17406 158.43887 137 ft 27 kts 60°
2026-05-07 23:17 53.17491 158.44162 137 ft 26 kts 68°
2026-05-07 23:17 53.17557 158.44443 138 ft 26 kts 68°
2026-05-07 23:17 53.17552 158.44634 138 ft 11 kts 156°
2026-05-07 23:17 53.17485 158.44683 139 ft 10 kts 156°
2026-05-07 23:18 53.17412 158.44735 139 ft 21 kts 157°
2026-05-07 23:18 53.17037 158.44997 136 ft 93 kts 157°
2026-05-07 23:18 53.16250 158.45538 136 ft 149 kts 158°
2026-05-07 23:18 53.15200 158.46252 430 ft 166 kts 158°
2026-05-07 23:19 53.14131 158.46968 1046 ft 165 kts 159°
2026-05-07 23:19 53.13051 158.47720 1529 ft 176 kts 159°
2026-05-07 23:19 53.11856 158.48565 1861 ft 198 kts 159°
2026-05-07 23:19 53.10506 158.49510 2192 ft 223 kts 160°
2026-05-07 23:20 53.08997 158.50552 2646 ft 247 kts 160°
2026-05-07 23:20 53.07354 158.51682 3296 ft 261 kts 160°
2026-05-07 23:20 53.05655 158.52853 4161 ft 268 kts 160°
2026-05-07 23:20 53.03918 158.54045 5070 ft 272 kts 160°
2026-05-07 23:21 53.02154 158.55251 5953 ft 276 kts 161°
2026-05-07 23:21 53.00360 158.56458 6799 ft 280 kts 164°
2026-05-07 23:21 52.98454 158.56899 7612 ft 277 kts 189°
2026-05-07 23:21 52.96612 158.56001 8504 ft 272 kts 212°
2026-05-07 23:22 52.95166 158.54032 9393 ft 270 kts 234°
2026-05-07 23:22 52.94279 158.51317 10188 ft 269 kts 255°
2026-05-07 23:22 52.94080 158.48235 10973 ft 271 kts 276°
2026-05-07 23:22 52.94614 158.45237 11754 ft 276 kts 297°
2026-05-07 23:23 52.95837 158.42736 12440 ft 289 kts 317°
2026-05-07 23:23 52.97689 158.41090 12646 ft 318 kts 337°
2026-05-07 23:23 52.99820 158.39818 13055 ft 332 kts 337°
2026-05-07 23:23 53.02018 158.38524 13730 ft 337 kts 337°
2026-05-07 23:24 53.04240 158.37210 14407 ft 341 kts 337°
2026-05-07 23:24 53.06486 158.35868 15074 ft 344 kts 336°
2026-05-07 23:24 53.08746 158.34508 15734 ft 347 kts 336°
2026-05-07 23:24 53.11028 158.33129 16398 ft 351 kts 336°
2026-05-07 23:25 53.13332 158.31729 17060 ft 354 kts 336°
2026-05-07 23:25 53.15657 158.30312 17705 ft 357 kts 336°
2026-05-07 23:25 53.18001 158.28879 18295 ft 361 kts 336°
2026-05-07 23:25 53.20366 158.27431 18859 ft 363 kts 336°
2026-05-07 23:26 53.22747 158.25971 19430 ft 366 kts 337°
2026-05-07 23:26 53.25148 158.24498 19987 ft 369 kts 337°
2026-05-07 23:26 53.27572 158.23014 20556 ft 372 kts 338°
2026-05-07 23:26 53.30009 158.21523 21102 ft 375 kts 338°
2026-05-07 23:27 53.34949 158.18487 22186 ft 381 kts 338°
2026-05-07 23:27 53.36633 158.17451 22545 ft 383 kts 338°
2026-05-07 23:27 53.39967 158.15404 23236 ft 387 kts 339°
2026-05-07 23:28 53.41682 158.14352 23527 ft 389 kts 338°
2026-05-07 23:28 53.44230 158.12778 23935 ft 392 kts 338°
2026-05-07 23:28 53.47632 158.10662 24473 ft 396 kts 338°
2026-05-07 23:28 53.49379 158.09573 24734 ft 397 kts 338°
2026-05-07 23:29 53.51984 158.07954 25131 ft 400 kts 338°
2026-05-07 23:29 53.54602 158.06325 25523 ft 403 kts 338°
2026-05-07 23:29 53.57236 158.04689 25907 ft 405 kts 337°
2026-05-07 23:29 53.59890 158.03039 26280 ft 408 kts 337°
2026-05-07 23:30 53.62560 158.01379 26658 ft 410 kts 337°
2026-05-07 23:30 53.65240 157.99693 27030 ft 412 kts 335°
2026-05-07 23:30 53.67801 157.97526 27391 ft 412 kts 328°
2026-05-07 23:30 53.70305 157.95127 27760 ft 415 kts 328°
2026-05-07 23:31 53.72817 157.92717 28119 ft 417 kts 328°
2026-05-07 23:31 53.75347 157.90280 28474 ft 420 kts 327°
2026-05-07 23:31 53.77891 157.87827 28828 ft 422 kts 327°
2026-05-07 23:31 53.80447 157.85361 29168 ft 424 kts 327°
2026-05-07 23:32 53.83013 157.82870 29512 ft 427 kts 327°
2026-05-07 23:32 53.85593 157.80351 29831 ft 429 kts 327°
2026-05-07 23:32 53.88186 157.77812 30091 ft 431 kts 327°
2026-05-07 23:32 53.90786 157.75263 30336 ft 433 kts 327°
2026-05-07 23:33 53.93402 157.72696 30578 ft 435 kts 327°
2026-05-07 23:33 53.96034 157.70110 30818 ft 438 kts 327°
2026-05-07 23:33 53.98671 157.67516 31126 ft 438 kts 327°
2026-05-07 23:33 54.01337 157.64893 31461 ft 437 kts 327°
2026-05-07 23:34 54.03934 157.62332 31771 ft 437 kts 327°
2026-05-07 23:34 54.06594 157.59701 32084 ft 437 kts 327°
2026-05-07 23:34 54.09228 157.57094 32408 ft 437 kts 327°
2026-05-07 23:34 54.11854 157.54495 32717 ft 437 kts 327°
2026-05-07 23:35 54.14486 157.51899 33030 ft 437 kts 327°
2026-05-07 23:35 54.17126 157.49299 33347 ft 438 kts 326°
2026-05-07 23:35 54.19759 157.46703 33647 ft 438 kts 326°
2026-05-07 23:35 54.22399 157.44097 33903 ft 438 kts 326°
2026-05-07 23:36 54.25034 157.41494 34147 ft 438 kts 326°
2026-05-07 23:36 54.27673 157.38882 34385 ft 438 kts 326°
2026-05-07 23:36 54.30308 157.36264 34600 ft 438 kts 326°
2026-05-07 23:36 54.32942 157.33641 34820 ft 438 kts 326°
2026-05-07 23:37 54.35582 157.31006 35039 ft 439 kts 326°
2026-05-07 23:37 54.38219 157.28374 35233 ft 439 kts 326°
2026-05-07 23:37 54.40859 157.25738 35412 ft 439 kts 326°
2026-05-07 23:37 54.43500 157.23094 35598 ft 439 kts 326°
2026-05-07 23:38 54.46140 157.20438 35717 ft 440 kts 326°
2026-05-07 23:38 54.48769 157.17798 35746 ft 437 kts 326°
2026-05-07 23:38 54.54005 157.12530 35744 ft 436 kts 326°
2026-05-07 23:39 54.59233 157.07255 35750 ft 436 kts 327°
2026-05-07 23:39 54.64467 157.01961 35750 ft 436 kts 327°
2026-05-07 23:40 54.69694 156.96654 35743 ft 436 kts 327°
2026-05-07 23:40 54.74933 156.91327 35740 ft 437 kts 327°
2026-05-07 23:41 54.80163 156.85980 35747 ft 437 kts 326°
2026-05-07 23:41 54.85433 156.80567 35746 ft 437 kts 326°
2026-05-07 23:42 54.90639 156.75228 35757 ft 438 kts 327°
2026-05-07 23:42 54.95914 156.69800 35750 ft 438 kts 326°
2026-05-07 23:43 55.01142 156.64372 35747 ft 438 kts 326°
2026-05-07 23:43 55.06385 156.58933 35742 ft 438 kts 327°
2026-05-07 23:44 55.11618 156.53488 35734 ft 438 kts 326°
2026-05-07 23:44 55.16850 156.48029 35736 ft 438 kts 326°
2026-05-07 23:45 55.22082 156.42563 35728 ft 438 kts 326°
2026-05-07 23:45 55.27316 156.37070 35728 ft 439 kts 327°
2026-05-07 23:46 55.32554 156.31564 35725 ft 439 kts 326°
2026-05-07 23:46 55.37785 156.26046 35723 ft 439 kts 326°
2026-05-07 23:47 55.43022 156.20496 35721 ft 439 kts 326°
2026-05-07 23:47 55.48245 156.14919 35721 ft 439 kts 326°
2026-05-07 23:48 55.53473 156.09324 35719 ft 440 kts 326°
2026-05-07 23:48 55.58699 156.03713 35723 ft 440 kts 326°
2026-05-07 23:49 55.63965 155.98026 35717 ft 440 kts 326°
2026-05-07 23:49 55.69154 155.92422 35716 ft 440 kts 326°
2026-05-07 23:50 55.74411 155.86716 35714 ft 440 kts 326°
2026-05-07 23:50 55.79630 155.81036 35712 ft 440 kts 326°
2026-05-07 23:51 55.84859 155.75326 35709 ft 441 kts 326°
2026-05-07 23:51 55.90081 155.69614 35708 ft 441 kts 326°
2026-05-07 23:52 55.95304 155.63890 35708 ft 441 kts 326°
2026-05-07 23:52 56.00525 155.58132 35704 ft 441 kts 326°
2026-05-07 23:53 56.05739 155.52363 35706 ft 441 kts 326°
2026-05-07 23:53 56.10955 155.46576 35704 ft 441 kts 326°
2026-05-07 23:54 56.16170 155.40769 35704 ft 441 kts 326°
2026-05-07 23:54 56.21394 155.34982 35707 ft 441 kts 327°
2026-05-07 23:55 56.26644 155.29253 35699 ft 442 kts 327°
2026-05-07 23:55 56.31898 155.23519 35708 ft 442 kts 327°
2026-05-07 23:56 56.37140 155.17735 35703 ft 442 kts 326°
2026-05-07 23:56 56.42377 155.11919 35708 ft 442 kts 326°
2026-05-07 23:57 56.47610 155.06098 35709 ft 442 kts 326°
2026-05-07 23:57 56.52880 155.00221 35704 ft 442 kts 326°
2026-05-07 23:58 56.58121 154.94376 35703 ft 442 kts 326°
2026-05-07 23:58 56.63353 154.88515 35704 ft 442 kts 326°
2026-05-07 23:59 56.68586 154.82628 35709 ft 442 kts 326°
2026-05-07 23:59 56.73818 154.76722 35707 ft 443 kts 326°
2026-05-08 00:00 56.79051 154.70789 35712 ft 443 kts 326°
2026-05-08 00:00 56.84275 154.64844 35705 ft 443 kts 326°
2026-05-08 00:01 56.88626 154.59886 35707 ft 443 kts 326°
2026-05-08 00:01 56.93855 154.53916 35709 ft 443 kts 326°
2026-05-08 00:02 56.99083 154.47919 35722 ft 443 kts 326°
2026-05-08 00:02 57.04340 154.41866 35711 ft 443 kts 326°
2026-05-08 00:03 57.09562 154.35839 35711 ft 443 kts 326°
2026-05-08 00:03 57.14779 154.29785 35712 ft 443 kts 326°
2026-05-08 00:04 57.19912 154.23517 35712 ft 442 kts 319°
2026-05-08 00:04 57.24301 154.15638 35711 ft 440 kts 313°
2026-05-08 00:05 57.28631 154.07630 35707 ft 440 kts 314°
2026-05-08 00:05 57.32954 153.99604 35708 ft 440 kts 313°
2026-05-08 00:06 57.37268 153.91543 35709 ft 440 kts 313°
2026-05-08 00:06 57.41574 153.83462 35713 ft 440 kts 313°
2026-05-08 00:07 57.45880 153.75383 35711 ft 440 kts 313°
2026-05-08 00:07 57.50178 153.67277 35714 ft 440 kts 313°
2026-05-08 00:08 57.54467 153.59158 35718 ft 440 kts 313°
2026-05-08 00:08 57.58750 153.51003 35715 ft 440 kts 313°
2026-05-08 00:09 57.63020 153.42829 35717 ft 440 kts 313°
2026-05-08 00:09 57.67290 153.34641 35719 ft 440 kts 313°
2026-05-08 00:10 57.71592 153.26403 35720 ft 440 kts 313°
2026-05-08 00:10 57.75878 153.18214 35727 ft 440 kts 313°
2026-05-08 00:11 57.80157 153.10012 35726 ft 440 kts 313°
2026-05-08 00:11 57.84428 153.01768 35730 ft 440 kts 313°
2026-05-08 00:12 57.88687 152.93507 35732 ft 440 kts 313°
2026-05-08 00:12 57.92937 152.85220 35735 ft 440 kts 313°
2026-05-08 00:13 57.97190 152.76918 35743 ft 440 kts 313°
2026-05-08 00:13 58.01438 152.68594 35744 ft 440 kts 313°
2026-05-08 00:14 58.05662 152.60224 35748 ft 440 kts 312°
2026-05-08 00:14 58.09876 152.51826 35749 ft 440 kts 312°
2026-05-08 00:15 58.14091 152.43415 35747 ft 441 kts 313°
2026-05-08 00:15 58.18306 152.34982 35751 ft 441 kts 312°
2026-05-08 00:16 58.22515 152.26526 35751 ft 441 kts 312°
2026-05-08 00:16 58.26750 152.17967 35754 ft 441 kts 312°
2026-05-08 00:17 58.30926 152.09524 35754 ft 441 kts 312°
2026-05-08 00:17 58.35165 152.00959 35756 ft 442 kts 312°
2026-05-08 00:18 58.39367 151.92412 35754 ft 442 kts 312°
2026-05-08 00:18 58.43561 151.83842 35757 ft 442 kts 312°
2026-05-08 00:19 58.47754 151.75248 35755 ft 442 kts 312°
2026-05-08 00:19 58.51941 151.66650 35755 ft 442 kts 312°
2026-05-08 00:20 58.56120 151.58027 35759 ft 442 kts 312°
2026-05-08 00:20 58.60302 151.49372 35760 ft 442 kts 312°
2026-05-08 00:21 58.64470 151.40709 35759 ft 442 kts 312°
2026-05-08 00:21 58.68639 151.32004 35758 ft 442 kts 312°
2026-05-08 00:22 58.72798 151.23283 35762 ft 442 kts 312°
2026-05-08 00:22 58.76952 151.14527 35760 ft 442 kts 312°
2026-05-08 00:23 58.81100 151.05775 35760 ft 442 kts 311°
2026-05-08 00:23 58.85237 150.96983 35757 ft 442 kts 311°
2026-05-08 00:24 58.89392 150.88125 35757 ft 442 kts 311°
2026-05-08 00:24 58.93520 150.79301 35759 ft 442 kts 311°
2026-05-08 00:25 58.97636 150.70453 35758 ft 442 kts 311°
2026-05-08 00:25 59.01753 150.61584 35761 ft 442 kts 311°
2026-05-08 00:26 59.05868 150.52718 35761 ft 442 kts 311°
2026-05-08 00:26 59.09970 150.43820 35763 ft 442 kts 311°
2026-05-08 00:27 59.14063 150.34901 35762 ft 442 kts 311°
2026-05-08 00:27 59.18144 150.25940 35760 ft 442 kts 310°
2026-05-08 00:28 59.22210 150.16962 35759 ft 442 kts 310°
2026-05-08 00:28 59.26286 150.07981 35760 ft 441 kts 311°
2026-05-08 00:29 59.30361 149.98990 35755 ft 441 kts 311°
2026-05-08 00:29 59.34424 149.89966 35758 ft 442 kts 310°
2026-05-08 00:30 59.38481 149.80915 35760 ft 442 kts 310°
2026-05-08 00:30 59.42542 149.71840 35762 ft 443 kts 310°
2026-05-08 00:31 59.46599 149.62725 35763 ft 443 kts 310°
2026-05-08 00:31 59.50675 149.53528 35763 ft 443 kts 310°
2026-05-08 00:32 59.54713 149.44375 35768 ft 443 kts 310°
2026-05-08 00:32 59.58741 149.35203 35766 ft 443 kts 310°
2026-05-08 00:33 59.62090 149.27550 35767 ft 443 kts 310°
2026-05-08 00:33 59.66103 149.18331 35772 ft 443 kts 308°
2026-05-08 00:34 59.69163 149.07845 35766 ft 441 kts 292°
2026-05-08 00:34 59.71522 148.96633 35765 ft 441 kts 292°
2026-05-08 00:35 59.73877 148.85417 35768 ft 441 kts 292°
2026-05-08 00:35 59.76231 148.74186 35768 ft 441 kts 292°
2026-05-08 00:36 59.78577 148.62932 35766 ft 441 kts 292°
2026-05-08 00:36 59.80904 148.51673 35773 ft 441 kts 292°
2026-05-08 00:37 59.83233 148.40325 35772 ft 440 kts 292°
2026-05-08 00:38 59.86687 148.23402 35772 ft 440 kts 291°
2026-05-08 00:38 59.88979 148.12103 35771 ft 440 kts 291°
2026-05-08 00:39 59.91261 148.00797 35770 ft 440 kts 291°
2026-05-08 00:39 59.93529 147.89477 35772 ft 440 kts 291°
2026-05-08 00:40 59.95782 147.78130 35769 ft 439 kts 291°
2026-05-08 00:40 59.98025 147.66794 35771 ft 439 kts 291°
2026-05-08 00:41 60.00261 147.55434 35766 ft 439 kts 291°
2026-05-08 00:41 60.02483 147.44084 35766 ft 439 kts 291°
2026-05-08 00:42 60.04699 147.32709 35767 ft 438 kts 291°
2026-05-08 00:42 60.06903 147.21337 35763 ft 438 kts 291°
2026-05-08 00:43 60.09099 147.09956 35762 ft 438 kts 291°
2026-05-08 00:43 60.11284 146.98566 35762 ft 438 kts 291°
2026-05-08 00:44 60.13449 146.87171 35758 ft 437 kts 291°
2026-05-08 00:44 60.15606 146.75756 35758 ft 437 kts 290°
2026-05-08 00:45 60.17763 146.64261 35754 ft 437 kts 290°
2026-05-08 00:45 60.19901 146.52834 35753 ft 437 kts 290°
2026-05-08 00:46 60.22025 146.41400 35756 ft 436 kts 290°
2026-05-08 00:46 60.24131 146.29961 35753 ft 436 kts 290°
2026-05-08 00:47 60.26237 146.18511 35754 ft 436 kts 290°
2026-05-08 00:47 60.28337 146.07057 35750 ft 435 kts 290°
2026-05-08 00:48 60.30415 145.95597 35748 ft 435 kts 290°
2026-05-08 00:48 60.32467 145.84118 35745 ft 435 kts 290°
2026-05-08 00:49 60.34501 145.72613 35743 ft 435 kts 290°
2026-05-08 00:49 60.36526 145.61109 35738 ft 435 kts 289°
2026-05-08 00:50 60.38534 145.49592 35738 ft 435 kts 289°
2026-05-08 00:50 60.40535 145.38057 35733 ft 434 kts 289°
2026-05-08 00:51 60.42534 145.26527 35732 ft 434 kts 289°
2026-05-08 00:51 60.44529 145.14897 35728 ft 434 kts 289°
2026-05-08 00:52 60.46498 145.03331 35725 ft 434 kts 289°
2026-05-08 00:52 60.48462 144.91762 35722 ft 434 kts 289°
2026-05-08 00:53 60.50413 144.80182 35721 ft 434 kts 289°
2026-05-08 00:53 60.52355 144.68577 35714 ft 434 kts 289°
2026-05-08 00:54 60.54278 144.56963 35712 ft 434 kts 288°
2026-05-08 00:54 60.56193 144.45344 35710 ft 434 kts 288°
2026-05-08 00:55 60.58109 144.33715 35702 ft 434 kts 288°
2026-05-08 00:55 60.60016 144.22064 35706 ft 434 kts 288°
2026-05-08 00:56 60.61913 144.10420 35704 ft 434 kts 288°
2026-05-08 00:56 60.63799 143.98752 35702 ft 434 kts 288°
2026-05-08 00:57 60.65673 143.87066 35700 ft 434 kts 288°
2026-05-08 00:57 60.67543 143.75373 35700 ft 433 kts 288°
2026-05-08 00:58 60.69403 143.63670 35703 ft 433 kts 288°
2026-05-08 00:58 60.71246 143.51961 35700 ft 433 kts 288°
2026-05-08 00:59 60.73092 143.40174 35703 ft 433 kts 287°
2026-05-08 00:59 60.74918 143.28440 35699 ft 433 kts 287°
2026-05-08 01:00 60.76726 143.16696 35704 ft 433 kts 287°
2026-05-08 01:00 60.78526 143.04938 35699 ft 433 kts 287°
2026-05-08 01:01 60.80316 142.93176 35704 ft 433 kts 287°
2026-05-08 01:01 60.82100 142.81398 35702 ft 433 kts 287°
2026-05-08 01:02 60.83870 142.69598 35703 ft 433 kts 287°
2026-05-08 01:02 60.85627 142.57790 35698 ft 433 kts 287°
2026-05-08 01:03 60.87381 142.45978 35695 ft 433 kts 287°
2026-05-08 01:03 60.89121 142.34148 35692 ft 433 kts 286°
2026-05-08 01:04 60.90846 142.22304 35688 ft 433 kts 286°
2026-05-08 01:04 60.92568 142.10451 35685 ft 433 kts 286°
2026-05-08 01:05 60.94272 141.98584 35673 ft 433 kts 286°
2026-05-08 01:05 60.95959 141.86699 35669 ft 432 kts 286°
2026-05-08 01:06 60.97648 141.74814 35668 ft 432 kts 286°
2026-05-08 01:06 60.99056 141.64854 35660 ft 432 kts 286°
2026-05-08 01:07 61.00721 141.52963 35653 ft 432 kts 285°
2026-05-08 01:07 61.02373 141.41047 35640 ft 432 kts 285°
2026-05-08 01:08 61.04009 141.29123 35638 ft 432 kts 285°
2026-05-08 01:08 61.05645 141.17206 35629 ft 431 kts 285°
2026-05-08 01:09 61.07265 141.05295 35621 ft 431 kts 285°
2026-05-08 01:09 61.08875 140.93382 35618 ft 431 kts 285°
2026-05-08 01:10 61.10471 140.81448 35621 ft 430 kts 285°
2026-05-08 01:10 61.12047 140.69520 35619 ft 430 kts 285°
2026-05-08 01:11 61.13614 140.57575 35626 ft 430 kts 285°
2026-05-08 01:11 61.15174 140.45538 35632 ft 430 kts 284°
2026-05-08 01:12 61.16727 140.33592 35647 ft 430 kts 285°
2026-05-08 01:12 61.18281 140.21630 35654 ft 430 kts 284°
2026-05-08 01:13 61.19815 140.09666 35664 ft 429 kts 284°
2026-05-08 01:13 61.21330 139.97690 35670 ft 429 kts 284°
2026-05-08 01:14 61.22840 139.85718 35672 ft 429 kts 284°
2026-05-08 01:14 61.24336 139.73738 35674 ft 428 kts 284°
2026-05-08 01:15 61.25820 139.61755 35675 ft 428 kts 284°
2026-05-08 01:15 61.27294 139.49769 35672 ft 428 kts 284°
2026-05-08 01:16 61.28757 139.37790 35665 ft 428 kts 284°
2026-05-08 01:16 61.30204 139.25790 35664 ft 427 kts 283°
2026-05-08 01:17 61.31639 139.13782 35664 ft 427 kts 283°
2026-05-08 01:17 61.33064 139.01789 35661 ft 427 kts 283°
2026-05-08 01:18 61.34482 138.89765 35657 ft 427 kts 283°
2026-05-08 01:18 61.35886 138.77753 35659 ft 427 kts 283°
2026-05-08 01:19 61.37294 138.65659 35656 ft 426 kts 283°
2026-05-08 01:19 61.38672 138.53639 35653 ft 426 kts 283°
2026-05-08 01:20 61.40042 138.41622 35654 ft 426 kts 283°
2026-05-08 01:20 61.41404 138.29603 35656 ft 425 kts 283°
2026-05-08 01:21 61.42743 138.17588 35655 ft 425 kts 283°
2026-05-08 01:21 61.44074 138.05565 35657 ft 424 kts 282°
2026-05-08 01:22 61.45398 137.93540 35658 ft 424 kts 282°
2026-05-08 01:22 61.46717 137.81527 35658 ft 424 kts 282°
2026-05-08 01:23 61.48019 137.69491 35659 ft 424 kts 282°
2026-05-08 01:23 61.49306 137.57454 35665 ft 424 kts 282°
2026-05-08 01:24 61.50578 137.45404 35667 ft 424 kts 282°
2026-05-08 01:24 61.51848 137.33354 35667 ft 424 kts 282°
2026-05-08 01:25 61.53107 137.21289 35671 ft 424 kts 282°
2026-05-08 01:25 61.54352 137.09212 35674 ft 424 kts 282°
2026-05-08 01:26 61.55598 136.97055 35677 ft 424 kts 282°
2026-05-08 01:26 61.56827 136.84959 35673 ft 424 kts 282°
2026-05-08 01:27 61.58038 136.72868 35669 ft 424 kts 281°
2026-05-08 01:27 61.59240 136.60764 35671 ft 424 kts 281°
2026-05-08 01:28 61.60429 136.48646 35673 ft 424 kts 281°
2026-05-08 01:28 61.61608 136.36512 35673 ft 424 kts 281°
2026-05-08 01:29 61.62783 136.24375 35673 ft 423 kts 281°
2026-05-08 01:29 61.63950 136.12240 35675 ft 424 kts 281°
2026-05-08 01:30 61.65095 136.00083 35673 ft 424 kts 281°
2026-05-08 01:30 61.66232 135.87925 35676 ft 424 kts 281°
2026-05-08 01:31 61.67361 135.75746 35678 ft 424 kts 281°
2026-05-08 01:31 61.68477 135.63568 35676 ft 424 kts 281°
2026-05-08 01:32 61.69584 135.51381 35681 ft 424 kts 281°
2026-05-08 01:32 61.70674 135.39178 35680 ft 423 kts 281°
2026-05-08 01:33 61.71755 135.26977 35681 ft 423 kts 280°
2026-05-08 01:33 61.72824 135.14769 35683 ft 423 kts 281°
2026-05-08 01:34 61.73909 135.02482 35683 ft 423 kts 281°
2026-05-08 01:34 61.74990 134.90279 35686 ft 423 kts 281°
2026-05-08 01:35 61.75700 134.82195 35693 ft 423 kts 281°